Regional Weather Roundup
Issued by NWS Memphis, TN

Home | Current Version | Previous Version | Text Only | Print | Product List | Glossary On
Versions: 1 2 3 4 5 6 7 8 9 10 11 12 13 14 15 16 17 18 19 20 21 22 23 24 25 26 27 28 29 30 31 32 33 34 35 36 37 38 39 40 41 42 43 44 45 46 47 48 49 50
000
ASUS44 KMEG 172310
RWRMEG
MEMPHIS CWA HOURLY WEATHER ROUNDUP
NATIONAL WEATHER SERVICE MEMPHIS TN
500 PM CST WED DEC 17 2014

...WEST TENNESSEE...

CITY           SKY/WX    TMP DP  RH WIND       PRES   REMARKS
MEMPHIS INTL   CLOUDY    40  32  73 N7        30.27S
NWS MEMPHIS      N/A     40 N/A N/A MISG        N/A
JACKSON        MOCLDY    38  30  73 NW7       30.28R WCI  33
LEXINGTON      CLEAR     37  30  75 NW5       30.25R WCI  34
SAVANNAH       CLEAR     39  30  70 CALM      30.25S
DYERSBURG      MOCLDY    37  21  52 CALM      30.30R
UNION CITY     CLEAR     34  28  80 NW3       30.27S
PARIS          CLEAR     36  27  69 CALM      30.26S
HUNTINGDON     MOCLDY    36  27  70 W3        30.27S


...EASTERN ARKANSAS...

CITY           SKY/WX    TMP DP  RH WIND       PRES   REMARKS
JONESBORO      MOCLDY    38  31  76 E6        30.28S WCI  33
WEST MEMPHIS   CLOUDY    39  33  79 N6        30.27S WCI  35
BATESVILLE     CLOUDY    39  27  60 E5        30.27F
NEWPORT        CLOUDY    38  31  76 NE6       30.30R WCI  33
WALNUT RIDGE   CLOUDY    37  27  65 E3        30.29F
BLYTHEVILLE    CLOUDY    37  32  82 N7        30.30S WCI  32
SEARCY         LGT RAIN  39  32  76 E6        30.27F WCI  35
STUTTGART      CLOUDY    41  30  65 NE10      30.25F
PINE BLUFF     CLOUDY    40  31  70 NE10      30.24F WCI  33
MONTICELLO     CLOUDY    44  34  67 NE8       30.22F


...NORTH MISSISSIPPI...

CITY           SKY/WX    TMP DP  RH WIND       PRES   REMARKS
TUPELO         CLOUDY    46  35  65 N3        30.24S
OXFORD         CLOUDY    41  32  70 CALM      30.25F
OLIVE BRANCH   CLOUDY    37  36  93 N6        30.27S WCI  33
TUNICA         CLOUDY    41  34  75 N8        30.27F
CLARKSDALE     CLOUDY    43  36  75 N5        30.27S
CORINTH        CLOUDY    43  34  70 N3        30.25R
GRENADA        CLOUDY    43  36  75 CALM      30.25R
GREENWOOD      CLOUDY    46  35  65 NW3       30.25R
STARKVILLE     FAIR      46  37  71 CALM      30.23R
GOLDEN TRIANGL MOCLDY    46  36  66 N7        30.22F


...SOUTHEAST MISSOURI...

CITY           SKY/WX    TMP DP  RH WIND       PRES   REMARKS
WEST PLAINS    CLOUDY    39  25  57 CALM      30.23F
POPLAR BLUFF   MOCLDY    38  27  64 CALM      30.27F
CAPE GIRARDEAU CLOUDY    38  29  70 CALM      30.29S


...NORTHWEST ALABAMA...

CITY           SKY/WX    TMP DP  RH WIND       PRES   REMARKS
MUSCLE SHOALS  CLOUDY    44  34  67 CALM      30.25R


...MIDDLE TENNESSEE...

CITY           SKY/WX    TMP DP  RH WIND       PRES   REMARKS
NASHVILLE      CLOUDY    38  29  70 CALM      30.26S
CLARKSVILLE    MOCLDY    36  27  69 N5        30.26S WCI  32


...WESTERN KENTUCKY...

CITY           SKY/WX    TMP DP  RH WIND       PRES   REMARKS
PADUCAH        PTCLDY    37  26  64 NW5       30.29R WCI  33
FORT CAMPBELL  MOCLDY    38  27  65 N5        30.26S WCI  34


...CENTRAL ARKANSAS...

CITY           SKY/WX    TMP DP  RH WIND       PRES   REMARKS
LITTLE ROCK    CLOUDY    41  28  60 NE8       30.25F


SKY/WX REPORTED AS FAIR MEANS FEW OR NO CLOUDS BELOW
12 THOUSAND FEET.




USA.gov is the U.S. government's official web portal to all federal, state and local government web resources and services.